Location: Bieg
(49.3499°N, 10.3835°E)
Time: 13:02:14
(UTC+00:00)

SL-08 R/B - Pass Details

Date: 23 May 2024
Orbit: 945 x 993 km, 83.0° (Epoch: 25 June)

Event Time Altitude Azimuth Distance (km) Brightness Sun altitude
Exits shadow 00:44:07 27° 196° (SSW) 1,764 5.2 -17.3°
Maximum altitude 00:47:42 79° 280° (W) 987 4.5 -17.1°
Drops below altitude 10° 00:53:53 10° 7° (N) 2,696 8.0 -16.7°
Sets 00:56:23 0° 9° (N) 3,641 9.0 -16.5°
